Prague, Czech Republic

10:00 AM CET on February 10, 2016 (GMT +0100)
Prague

Weather History for 11518 - July, 2013

Change the Weather History Date:

Thursday, July 18, 2013

  Actual Average Record
Temperature  
Mean Temperature 68 °F -  
Max Temperature 80 °F 73 °F - ()
Min Temperature 55 °F 53 °F - ()
Cooling Degree Days 2    
Growing Degree Days 18 (Base 50)    
Moisture  
Dew Point 54 °F    
Average Humidity 59    
Maximum Humidity 82    
Minimum Humidity 33    
Precipitation  
Precipitation 0.00 in 0.09 in - ()
Sea Level Pressure  
Sea Level Pressure 30.20 in    
Wind  
Wind Speed 4 mph ()    
Max Wind Speed 12 mph    
Max Gust Speed -    
Visibility 10.5 miles    
Events      
T = Trace of Precipitation, MM = Missing Value Source: Averaged Metar Reports

Daily Weather History Graph

Daily Weather History Graph

Search for Another Location

Airport or City:

Trip Planner

Search our weather history database for the weather conditions in past years. The results will help you decide how hot, cold, wet, or windy it might be!

Date:

Astronomy

Jul. 18, 2013 Rise Set
Actual Time 5:13 AM CEST 9:04 PM CEST
Civil Twilight 4:31 AM CEST 9:45 PM CEST
Nautical Twilight 3:34 AM CEST 10:42 PM CEST
Astronomical Twilight 1:59 AM CEST 12:14 AM CEST
Moon 4:37 PM CEST (7/18) 12:58 AM CEST (7/18)
Length of Visible Light 17h 13m
Length of Day
15h 50m
Waxing Gibbous, 75% of the Moon is Illuminated
Jul 18
Waxing Gibbous
Jul 22
Full
Jul 29
Last Quarter
Aug 6
New
Aug 14
First Quarter

Hourly Weather History & Observations

Time (CEST) Temp. Heat Index Dew Point Humidity Pressure Visibility Wind Dir Wind Speed Gust Speed Precip Events Conditions
12:00 AM 60.8 °F - 51.8 °F 72% 30.21 in - North 2.3 mph - N/A   Clear
12:30 AM 60.8 °F - 51.8 °F 72% 30.21 in - Variable 2.3 mph - N/A   Clear
1:00 AM 60.8 °F - 51.8 °F 72% 30.21 in - NW 3.5 mph - N/A   Clear
1:30 AM 59.0 °F - 51.8 °F 77% 30.21 in - NW 3.5 mph - N/A   Clear
2:00 AM 60 °F - 51 °F 65% 30.21 in 19 mi NW 2.2 mph - -   Clear
2:00 AM 59.0 °F - 51.8 °F 77% 30.21 in - WNW 3.5 mph - N/A   Clear
2:30 AM 60.8 °F - 51.8 °F 72% 30.21 in - NW 3.5 mph - N/A   Clear
3:00 AM 59.0 °F - 51.8 °F 77% 30.21 in - NW 2.3 mph - N/A   Clear
3:30 AM 57.2 °F - 51.8 °F 82% 30.21 in - NW 4.6 mph - N/A   Clear
4:00 AM 57.2 °F - 51.8 °F 82% 30.21 in - NW 3.5 mph - N/A   Clear
4:30 AM 59.0 °F - 51.8 °F 77% 30.21 in - Variable 2.3 mph - N/A   Clear
5:00 AM 59.0 °F - 51.8 °F 77% 30.21 in - NNW 4.6 mph - N/A   Clear
5:30 AM 59.0 °F - 51.8 °F 77% 30.21 in - North 4.6 mph - N/A   Clear
6:00 AM 59.0 °F - 51.8 °F 77% 30.21 in - NNW 4.6 mph - N/A   Clear
6:30 AM 59.0 °F - 51.8 °F 77% 30.21 in - NNW 5.8 mph - N/A   Clear
7:00 AM 62.6 °F - 53.6 °F 72% 30.21 in - North 3.5 mph - N/A   Clear
7:30 AM 64.4 °F - 55.4 °F 73% 30.21 in - NNE 3.5 mph - N/A   Clear
8:00 AM 66 °F - 55 °F 58% 30.21 in 19 mi NNW 2.2 mph - -   Clear
8:00 AM 66.2 °F - 55.4 °F 68% 30.21 in - North 2.3 mph - N/A   Clear
8:30 AM 68.0 °F - 55.4 °F 64% 30.24 in - North 3.5 mph - N/A   Clear
9:00 AM 69.8 °F - 55.4 °F 60% 30.24 in - NE 3.5 mph - N/A   Clear
9:30 AM 71.6 °F - 57.2 °F 60% 30.24 in - East 5.8 mph - N/A   Clear
10:00 AM 73.4 °F - 57.2 °F 57% 30.24 in - ENE 3.5 mph - N/A   Clear
10:30 AM 73.4 °F - 57.2 °F 57% 30.24 in - NE 5.8 mph - N/A   Clear
11:00 AM 75.2 °F - 55.4 °F 50% 30.24 in 6.2 mi NE 5.8 mph - N/A   Partly Cloudy
11:30 AM 75.2 °F - 55.4 °F 50% 30.21 in 6.2 mi NNE 6.9 mph - N/A   Partly Cloudy
12:00 PM 77.0 °F - 55.4 °F 47% 30.21 in 6.2 mi NNE 6.9 mph - N/A   Scattered Clouds
12:30 PM 77.0 °F - 53.6 °F 44% 30.21 in 6.2 mi North 8.1 mph - N/A   Scattered Clouds
1:00 PM 77.0 °F - 53.6 °F 44% 30.21 in - ENE 4.6 mph - N/A   Clear
1:30 PM 78.8 °F - 53.6 °F 42% 30.21 in - NNE 5.8 mph - N/A   Clear
2:00 PM 80 °F - 56 °F 33% 30.16 in 25 mi North 6.7 mph - -   Partly Cloudy
2:00 PM 80.6 °F 80.5 °F 55.4 °F 42% 30.21 in - ENE 4.6 mph - N/A   Clear
2:30 PM 78.8 °F - 53.6 °F 42% 30.21 in - North 8.1 mph - N/A   Clear
3:00 PM 80.6 °F 80.5 °F 55.4 °F 42% 30.21 in - Variable 4.6 mph - N/A   Clear
3:30 PM 77.0 °F - 55.4 °F 47% 30.18 in - NNE 11.5 mph - N/A   Clear
4:00 PM 78.8 °F - 53.6 °F 42% 30.18 in - NNE 8.1 mph - N/A   Clear
4:30 PM 78.8 °F - 53.6 °F 42% 30.18 in - NE 8.1 mph - N/A   Clear
5:00 PM 80.6 °F 80.3 °F 53.6 °F 39% 30.18 in - NE 8.1 mph - N/A   Clear
5:30 PM 80.6 °F 80.5 °F 55.4 °F 42% 30.18 in - North 9.2 mph - N/A   Clear
6:00 PM 78.8 °F - 55.4 °F 44% 30.15 in - North 8.1 mph - N/A   Clear
6:30 PM 78.8 °F - 55.4 °F 44% 30.15 in - NNE 8.1 mph - N/A   Clear
7:00 PM 78.8 °F - 57.2 °F 47% 30.15 in - North 9.2 mph - N/A   Clear
7:30 PM 75.2 °F - 55.4 °F 50% 30.15 in - NNE 11.5 mph - N/A   Clear
8:00 PM 75.2 °F - 55.4 °F 50% 30.15 in - NNE 6.9 mph - N/A   Clear
8:30 PM 73.4 °F - 55.4 °F 53% 30.15 in - NNE 6.9 mph - N/A   Clear
9:00 PM 73.4 °F - 55.4 °F 53% 30.15 in - NE 5.8 mph - N/A   Clear
9:30 PM 71.6 °F - 55.4 °F 57% 30.18 in - NE 5.8 mph - N/A   Clear
10:00 PM 69.8 °F - 55.4 °F 60% 30.18 in - North 4.6 mph - N/A   Clear
10:30 PM 68.0 °F - 55.4 °F 64% 30.18 in - North 3.5 mph - N/A   Clear
11:00 PM 68.0 °F - 55.4 °F 64% 30.18 in - NNE 3.5 mph - N/A   Clear
11:30 PM 66.2 °F - 55.4 °F 68% 30.18 in - NNE 3.5 mph - N/A   Clear